カタログに戻る

STARLINK-5917

運用中通信VLEO
NORAD 55942·PAYLOAD·🇺🇸 United States

打ち上げ Mar 17, 2023 から Vandenberg Space Force Base

Loading…

次のパス (今後24時間)

TLE

最新Source: CelesTrak SupGP

元期: Sep 15, 2026, 02:52 UTC

1 55942C 23037AE  26258.11993056  .00024109  00000+0  20205-2 0  2581
2 55942  70.0016 166.6780 0003069 273.1251 276.6802 14.98316866    18

AllMySatでSTARLINK-5917をリアルタイム追跡

Download on the App Store